Date_Time,Julian_Date,Latitude,Longitude,Instrument_Depth,U,V,Speed,Direction
(yyyy-mm-dd hh:mn:ss UTC),(JD),(+ deg. North),(+ deg. East),(m),(cm/s),(cm/s),(cm/s),(deg True)
1980-07-17 16:00:00 UTC,2444438.166667,26.9933,-96.0933,0450,6.62,-3.86,7.6632,120.2457
1980-07-17 16:30:00 UTC,2444438.187500,26.9933,-96.0933,0450,5.71,-3.73,6.8203,123.1542
1980-07-17 17:00:00 UTC,2444438.208333,26.9933,-96.0933,0450,5.19,-5.05,7.2414,134.2167
1980-07-17 17:30:00 UTC,2444438.229167,26.9933,-96.0933,0450,2.46,-4.99,5.5634,153.7573
1980-07-17 18:00:00 UTC,2444438.250000,26.9933,-96.0933,0450,2.30,-4.60,5.1430,153.4350
1980-07-17 18:30:00 UTC,2444438.270833,26.9933,-96.0933,0450,1.57,-3.39,3.7359,155.1499
1980-07-17 19:00:00 UTC,2444438.291667,26.9933,-96.0933,0450,0.82,-3.51,3.6045,166.8505
1980-07-17 19:30:00 UTC,2444438.312500,26.9933,-96.0933,0450,0.40,-3.58,3.6023,173.6247
1980-07-17 20:00:00 UTC,2444438.333333,26.9933,-96.0933,0450,-1.40,-0.55,1.5042,248.5523
1980-07-17 20:30:00 UTC,2444438.354167,26.9933,-96.0933,0450,-0.36,1.46,1.5037,346.1486
1980-07-17 21:00:00 UTC,2444438.375000,26.9933,-96.0933,0450,-1.30,-0.75,1.5008,240.0184
1980-07-17 21:30:00 UTC,2444438.395833,26.9933,-96.0933,0450,-0.51,-1.41,1.4994,199.8852
1980-07-17 22:00:00 UTC,2444438.416667,26.9933,-96.0933,0450,-1.20,1.31,1.7765,317.5094
1980-07-17 22:30:00 UTC,2444438.437500,26.9933,-96.0933,0450,1.33,0.69,1.4983,62.5798
1980-07-17 23:00:00 UTC,2444438.458333,26.9933,-96.0933,0450,0.41,-1.44,1.4972,164.1072
1980-07-17 23:30:00 UTC,2444438.479167,26.9933,-96.0933,0450,-1.47,0.31,1.5023,281.9083
1980-07-18 00:00:00 UTC,2444438.500000,26.9933,-96.0933,0450,-1.41,0.51,1.4994,289.8852
1980-07-18 00:30:00 UTC,2444438.520833,26.9933,-96.0933,0450,-2.58,1.61,3.0411,301.9655
1980-07-18 01:00:00 UTC,2444438.541667,26.9933,-96.0933,0450,-2.54,2.55,3.5992,315.1126
1980-07-18 01:30:00 UTC,2444438.562500,26.9933,-96.0933,0450,-0.85,1.56,1.7765,331.4153
1980-07-18 02:00:00 UTC,2444438.583333,26.9933,-96.0933,0450,0.44,2.87,2.9035,8.7162
1980-07-18 02:30:00 UTC,2444438.604167,26.9933,-96.0933,0450,0.20,4.86,4.8641,2.3565
1980-07-18 03:00:00 UTC,2444438.625000,26.9933,-96.0933,0450,-0.99,4.04,4.1595,346.2310
1980-07-18 03:30:00 UTC,2444438.645833,26.9933,-96.0933,0450,0.25,1.76,1.7777,8.0845
1980-07-18 04:00:00 UTC,2444438.666667,26.9933,-96.0933,0450,-0.55,1.98,2.0550,344.4759
1980-07-18 04:30:00 UTC,2444438.687500,26.9933,-96.0933,0450,-1.34,5.11,5.2828,345.3061
1980-07-18 05:00:00 UTC,2444438.708333,26.9933,-96.0933,0450,-0.08,5.28,5.2806,359.1320
1980-07-18 05:30:00 UTC,2444438.729167,26.9933,-96.0933,0450,0.48,4.13,4.1578,6.6293
1980-07-18 06:00:00 UTC,2444438.750000,26.9933,-96.0933,0450,1.21,4.85,4.9987,14.0084
1980-07-18 06:30:00 UTC,2444438.770833,26.9933,-96.0933,0450,1.18,4.72,4.8653,14.0362
1980-07-18 07:00:00 UTC,2444438.791667,26.9933,-96.0933,0450,0.62,4.40,4.4435,8.0207
1980-07-18 07:30:00 UTC,2444438.812500,26.9933,-96.0933,0450,1.79,5.11,5.4144,19.3050
1980-07-18 08:00:00 UTC,2444438.833333,26.9933,-96.0933,0450,2.22,6.89,7.2388,17.8593
1980-07-18 08:30:00 UTC,2444438.854167,26.9933,-96.0933,0450,2.28,7.90,8.2224,16.0985
1980-07-18 09:00:00 UTC,2444438.875000,26.9933,-96.0933,0450,4.45,8.05,9.1981,28.9336
1980-07-18 09:30:00 UTC,2444438.895833,26.9933,-96.0933,0450,5.37,7.30,9.0624,36.3388
1980-07-18 10:00:00 UTC,2444438.916667,26.9933,-96.0933,0450,6.96,6.01,9.1957,49.1892
1980-07-18 10:30:00 UTC,2444438.937500,26.9933,-96.0933,0450,4.82,8.00,9.3398,31.0690
1980-07-18 11:00:00 UTC,2444438.958333,26.9933,-96.0933,0450,9.14,5.37,10.6008,59.5646
1980-07-18 11:30:00 UTC,2444438.979167,26.9933,-96.0933,0450,7.47,5.83,9.4757,52.0296
1980-07-18 12:00:00 UTC,2444439.000000,26.9933,-96.0933,0450,5.36,4.87,7.2420,47.7423
1980-07-18 12:30:00 UTC,2444439.020833,26.9933,-96.0933,0450,6.24,3.67,7.2392,59.5385
1980-07-18 13:00:00 UTC,2444439.041667,26.9933,-96.0933,0450,7.58,3.84,8.4972,63.1334
1980-07-18 13:30:00 UTC,2444439.062500,26.9933,-96.0933,0450,8.54,2.59,8.9241,73.1286
1980-07-18 14:00:00 UTC,2444439.083333,26.9933,-96.0933,0450,9.23,3.18,9.7624,70.9897
1980-07-18 14:30:00 UTC,2444439.104167,26.9933,-96.0933,0450,9.75,0.50,9.7628,87.0643
1980-07-18 15:00:00 UTC,2444439.125000,26.9933,-96.0933,0450,8.98,2.01,9.2022,77.3834
1980-07-18 15:30:00 UTC,2444439.145833,26.9933,-96.0933,0450,9.14,-1.02,9.1967,96.3677
1980-07-18 16:00:00 UTC,2444439.166667,26.9933,-96.0933,0450,7.78,-0.62,7.8047,94.5564
1980-07-18 16:30:00 UTC,2444439.187500,26.9933,-96.0933,0450,6.50,-0.72,6.5398,96.3208
1980-07-18 17:00:00 UTC,2444439.208333,26.9933,-96.0933,0450,6.24,-0.54,6.2633,94.9460
1980-07-18 17:30:00 UTC,2444439.229167,26.9933,-96.0933,0450,7.38,0.01,7.3800,89.9224
1980-07-18 18:00:00 UTC,2444439.250000,26.9933,-96.0933,0450,5.92,2.04,6.2616,70.9863
1980-07-18 18:30:00 UTC,2444439.270833,26.9933,-96.0933,0450,3.34,3.53,4.8597,43.4158
1980-07-18 19:00:00 UTC,2444439.291667,26.9933,-96.0933,0450,2.48,-0.15,2.4845,93.4613
1980-07-18 19:30:00 UTC,2444439.312500,26.9933,-96.0933,0450,3.51,1.65,3.8785,64.8225
1980-07-18 20:00:00 UTC,2444439.333333,26.9933,-96.0933,0450,1.55,2.94,3.3236,27.7987
1980-07-18 20:30:00 UTC,2444439.354167,26.9933,-96.0933,0450,2.63,1.21,2.8950,65.2940
1980-07-18 21:00:00 UTC,2444439.375000,26.9933,-96.0933,0450,0.44,1.72,1.7754,14.3493
1980-07-18 21:30:00 UTC,2444439.395833,26.9933,-96.0933,0450,0.34,1.46,1.4991,13.1092
1980-07-18 22:00:00 UTC,2444439.416667,26.9933,-96.0933,0450,-0.46,1.43,1.5022,342.1682
1980-07-18 22:30:00 UTC,2444439.437500,26.9933,-96.0933,0450,-0.36,2.88,2.9024,352.8750
1980-07-18 23:00:00 UTC,2444439.458333,26.9933,-96.0933,0450,-1.00,3.31,3.4578,343.1897
1980-07-18 23:30:00 UTC,2444439.479167,26.9933,-96.0933,0450,-0.10,4.86,4.8610,358.8212
1980-07-19 00:00:00 UTC,2444439.500000,26.9933,-96.0933,0450,0.95,6.47,6.5394,8.3531
1980-07-19 00:30:00 UTC,2444439.520833,26.9933,-96.0933,0450,1.97,6.67,6.9548,16.4546
1980-07-19 01:00:00 UTC,2444439.541667,26.9933,-96.0933,0450,4.65,5.91,7.5200,38.1957
1980-07-19 01:30:00 UTC,2444439.562500,26.9933,-96.0933,0450,3.01,5.96,6.6770,26.7953
1980-07-19 02:00:00 UTC,2444439.583333,26.9933,-96.0933,0450,2.70,6.41,6.9554,22.8416
1980-07-19 02:30:00 UTC,2444439.604167,26.9933,-96.0933,0450,3.55,7.88,8.6427,24.2519
1980-07-19 03:00:00 UTC,2444439.625000,26.9933,-96.0933,0450,4.99,6.35,8.0761,38.1612
1980-07-19 03:30:00 UTC,2444439.645833,26.9933,-96.0933,0450,5.04,5.58,7.5192,42.0892
1980-07-19 04:00:00 UTC,2444439.666667,26.9933,-96.0933,0450,3.34,7.05,7.8012,25.3497
1980-07-19 04:30:00 UTC,2444439.687500,26.9933,-96.0933,0450,3.91,5.24,6.5380,36.7297
1980-07-19 05:00:00 UTC,2444439.708333,26.9933,-96.0933,0450,4.22,5.88,7.2376,35.6665
1980-07-19 05:30:00 UTC,2444439.729167,26.9933,-96.0933,0450,5.19,4.42,6.8171,49.5810
1980-07-19 06:00:00 UTC,2444439.750000,26.9933,-96.0933,0450,3.50,4.13,5.4136,40.2799
1980-07-19 06:30:00 UTC,2444439.770833,26.9933,-96.0933,0450,3.19,3.67,4.8626,40.9975
1980-07-19 07:00:00 UTC,2444439.791667,26.9933,-96.0933,0450,3.07,4.12,5.1380,36.6915
1980-07-19 07:30:00 UTC,2444439.812500,26.9933,-96.0933,0450,3.49,4.68,5.8380,36.7129
1980-07-19 08:00:00 UTC,2444439.833333,26.9933,-96.0933,0450,4.84,5.57,7.3791,40.9887
1980-07-19 08:30:00 UTC,2444439.854167,26.9933,-96.0933,0450,4.26,4.78,6.4028,41.7079
1980-07-19 09:00:00 UTC,2444439.875000,26.9933,-96.0933,0450,3.85,5.29,6.5427,36.0467
1980-07-19 09:30:00 UTC,2444439.895833,26.9933,-96.0933,0450,4.51,3.01,5.4222,56.2806
1980-07-19 10:00:00 UTC,2444439.916667,26.9933,-96.0933,0450,3.41,4.57,5.7020,36.7292
1980-07-19 10:30:00 UTC,2444439.937500,26.9933,-96.0933,0450,4.02,4.80,6.2610,39.9462
1980-07-19 11:00:00 UTC,2444439.958333,26.9933,-96.0933,0450,3.83,5.13,6.4020,36.7446
1980-07-19 11:30:00 UTC,2444439.979167,26.9933,-96.0933,0450,4.08,4.93,6.3993,39.6107
1980-07-19 12:00:00 UTC,2444440.000000,26.9933,-96.0933,0450,3.98,5.19,6.5404,37.4831
1980-07-19 12:30:00 UTC,2444440.020833,26.9933,-96.0933,0450,4.31,5.28,6.8158,39.2243
1980-07-19 13:00:00 UTC,2444440.041667,26.9933,-96.0933,0450,4.50,6.03,7.5240,36.7328
1980-07-19 13:30:00 UTC,2444440.062500,26.9933,-96.0933,0450,3.41,4.57,5.7020,36.7292
1980-07-19 14:00:00 UTC,2444440.083333,26.9933,-96.0933,0450,3.41,4.57,5.7020,36.7292
1980-07-19 14:30:00 UTC,2444440.104167,26.9933,-96.0933,0450,2.33,2.75,3.6044,40.2737
1980-07-19 15:00:00 UTC,2444440.125000,26.9933,-96.0933,0450,1.80,3.75,4.1596,25.6410
1980-07-19 15:30:00 UTC,2444440.145833,26.9933,-96.0933,0450,2.40,3.22,4.0160,36.6987
1980-07-19 16:00:00 UTC,2444440.166667,26.9933,-96.0933,0450,1.04,4.17,4.2977,14.0039
1980-07-19 16:30:00 UTC,2444440.187500,26.9933,-96.0933,0450,0.49,5.40,5.4222,5.1849
1980-07-19 17:00:00 UTC,2444440.208333,26.9933,-96.0933,0450,0.49,5.82,5.8406,4.8125
1980-07-19 17:30:00 UTC,2444440.229167,26.9933,-96.0933,0450,0.92,6.05,6.1196,8.6465
1980-07-19 18:00:00 UTC,2444440.250000,26.9933,-96.0933,0450,0.79,6.21,6.2600,7.2499
1980-07-19 18:30:00 UTC,2444440.270833,26.9933,-96.0933,0450,1.10,5.59,5.6972,11.1324
1980-07-19 19:00:00 UTC,2444440.291667,26.9933,-96.0933,0450,1.78,4.97,5.2791,19.7049
1980-07-19 19:30:00 UTC,2444440.312500,26.9933,-96.0933,0450,1.32,6.26,6.3977,11.9071
1980-07-19 20:00:00 UTC,2444440.333333,26.9933,-96.0933,0450,1.71,7.04,7.2447,13.6526
1980-07-19 20:30:00 UTC,2444440.354167,26.9933,-96.0933,0450,1.07,7.02,7.1011,8.6664
1980-07-19 21:00:00 UTC,2444440.375000,26.9933,-96.0933,0450,2.29,6.28,6.6845,20.0344
1980-07-19 21:30:00 UTC,2444440.395833,26.9933,-96.0933,0450,-0.11,7.66,7.6608,359.1773
1980-07-19 22:00:00 UTC,2444440.416667,26.9933,-96.0933,0450,1.99,8.41,8.6422,13.3126
1980-07-19 22:30:00 UTC,2444440.437500,26.9933,-96.0933,0450,0.35,8.63,8.6371,2.3224
1980-07-19 23:00:00 UTC,2444440.458333,26.9933,-96.0933,0450,1.30,9.67,9.7570,7.6567
1980-07-19 23:30:00 UTC,2444440.479167,26.9933,-96.0933,0450,1.86,9.72,9.8964,10.8330
1980-07-20 00:00:00 UTC,2444440.500000,26.9933,-96.0933,0450,0.99,10.27,10.3176,5.5061
1980-07-20 00:30:00 UTC,2444440.520833,26.9933,-96.0933,0450,1.45,11.35,11.4422,7.2803
1980-07-20 01:00:00 UTC,2444440.541667,26.9933,-96.0933,0450,1.03,12.24,12.2833,4.8101
1980-07-20 01:30:00 UTC,2444440.562500,26.9933,-96.0933,0450,3.06,12.61,12.9760,13.6400
1980-07-20 02:00:00 UTC,2444440.583333,26.9933,-96.0933,0450,3.72,12.29,12.8407,16.8403
1980-07-20 02:30:00 UTC,2444440.604167,26.9933,-96.0933,0450,4.18,11.70,12.4243,19.6600
1980-07-20 03:00:00 UTC,2444440.625000,26.9933,-96.0933,0450,5.14,10.84,11.9969,25.3689
1980-07-20 03:30:00 UTC,2444440.645833,26.9933,-96.0933,0450,6.81,9.02,11.3021,37.0524
1980-07-20 04:00:00 UTC,2444440.666667,26.9933,-96.0933,0450,4.72,10.11,11.1575,25.0262
1980-07-20 04:30:00 UTC,2444440.687500,26.9933,-96.0933,0450,6.17,8.27,10.3180,36.7255
1980-07-20 05:00:00 UTC,2444440.708333,26.9933,-96.0933,0450,4.08,8.09,9.0606,26.7630
1980-07-20 05:30:00 UTC,2444440.729167,26.9933,-96.0933,0450,5.41,5.42,7.6580,44.9471
1980-07-20 06:00:00 UTC,2444440.750000,26.9933,-96.0933,0450,3.74,5.02,6.2600,36.6868
1980-07-20 06:30:00 UTC,2444440.770833,26.9933,-96.0933,0450,3.86,5.45,6.6785,35.3083
1980-07-20 07:00:00 UTC,2444440.791667,26.9933,-96.0933,0450,4.92,5.12,7.1008,43.8588
1980-07-20 07:30:00 UTC,2444440.812500,26.9933,-96.0933,0450,6.98,2.41,7.3843,70.9516
1980-07-20 08:00:00 UTC,2444440.833333,26.9933,-96.0933,0450,5.28,3.86,6.5405,53.8309
1980-07-20 08:30:00 UTC,2444440.854167,26.9933,-96.0933,0450,2.73,4.02,4.8594,34.1806
1980-07-20 09:00:00 UTC,2444440.875000,26.9933,-96.0933,0450,2.50,4.81,5.4209,27.4632
1980-07-20 09:30:00 UTC,2444440.895833,26.9933,-96.0933,0450,5.66,0.65,5.6972,83.4488
1980-07-20 10:00:00 UTC,2444440.916667,26.9933,-96.0933,0450,5.29,2.48,5.8425,64.8824
1980-07-20 10:30:00 UTC,2444440.937500,26.9933,-96.0933,0450,4.98,0.44,4.9994,84.9508
1980-07-20 11:00:00 UTC,2444440.958333,26.9933,-96.0933,0450,5.94,-1.46,6.1168,103.8091
1980-07-20 11:30:00 UTC,2444440.979167,26.9933,-96.0933,0450,4.75,-1.56,4.9996,108.1813
1980-07-20 12:00:00 UTC,2444441.000000,26.9933,-96.0933,0450,3.19,-2.67,4.1599,129.9290
1980-07-20 12:30:00 UTC,2444441.020833,26.9933,-96.0933,0450,2.75,-4.35,5.1464,147.6996
1980-07-20 13:00:00 UTC,2444441.041667,26.9933,-96.0933,0450,2.09,-1.05,2.3389,116.6746
1980-07-20 13:30:00 UTC,2444441.062500,26.9933,-96.0933,0450,1.34,-3.49,3.7384,158.9955
1980-07-20 14:00:00 UTC,2444441.083333,26.9933,-96.0933,0450,0.44,-4.14,4.1633,173.9333
1980-07-20 14:30:00 UTC,2444441.104167,26.9933,-96.0933,0450,-0.28,-3.03,3.0429,185.2797
1980-07-20 15:00:00 UTC,2444441.125000,26.9933,-96.0933,0450,-2.94,-2.08,3.6014,234.7213
1980-07-20 15:30:00 UTC,2444441.145833,26.9933,-96.0933,0450,-4.83,-0.58,4.8647,263.1526
1980-07-20 16:00:00 UTC,2444441.166667,26.9933,-96.0933,0450,-5.03,1.61,5.2814,287.7488
1980-07-20 16:30:00 UTC,2444441.187500,26.9933,-96.0933,0450,-1.52,6.22,6.4030,346.2676
1980-07-20 17:00:00 UTC,2444441.208333,26.9933,-96.0933,0450,-1.62,6.63,6.8250,346.2692
1980-07-20 17:30:00 UTC,2444441.229167,26.9933,-96.0933,0450,-0.76,6.35,6.3953,353.1750
1980-07-20 18:00:00 UTC,2444441.250000,26.9933,-96.0933,0450,-1.55,6.35,6.5364,346.2827
1980-07-20 18:30:00 UTC,2444441.270833,26.9933,-96.0933,0450,-1.64,5.02,5.2811,341.9081
1980-07-20 19:00:00 UTC,2444441.291667,26.9933,-96.0933,0450,-2.23,5.70,6.1207,338.6332
1980-07-20 19:30:00 UTC,2444441.312500,26.9933,-96.0933,0450,-0.43,5.68,5.6963,355.6707
1980-07-20 20:00:00 UTC,2444441.333333,26.9933,-96.0933,0450,-1.19,4.86,5.0036,346.2415
1980-07-20 20:30:00 UTC,2444441.354167,26.9933,-96.0933,0450,-2.31,6.56,6.9548,340.6011
1980-07-20 21:00:00 UTC,2444441.375000,26.9933,-96.0933,0450,-2.13,6.63,6.9637,342.1895
1980-07-20 21:30:00 UTC,2444441.395833,26.9933,-96.0933,0450,-0.84,5.78,5.8407,351.7312
1980-07-20 22:00:00 UTC,2444441.416667,26.9933,-96.0933,0450,-0.84,5.78,5.8407,351.7312
1980-07-20 22:30:00 UTC,2444441.437500,26.9933,-96.0933,0450,-0.90,6.20,6.2650,351.7406
1980-07-20 23:00:00 UTC,2444441.458333,26.9933,-96.0933,0450,-2.13,4.68,5.1419,335.5284
1980-07-20 23:30:00 UTC,2444441.479167,26.9933,-96.0933,0450,-3.14,3.71,4.8604,319.7567
1980-07-21 00:00:00 UTC,2444441.500000,26.9933,-96.0933,0450,-4.18,3.88,5.7032,312.8684
1980-07-21 00:30:00 UTC,2444441.520833,26.9933,-96.0933,0450,-4.93,3.62,6.1163,306.2891
1980-07-21 01:00:00 UTC,2444441.541667,26.9933,-96.0933,0450,-5.28,4.31,6.8158,309.2244
1980-07-21 01:30:00 UTC,2444441.562500,26.9933,-96.0933,0450,-5.80,4.79,7.5222,309.5520
1980-07-21 02:00:00 UTC,2444441.583333,26.9933,-96.0933,0450,-5.52,4.89,7.3744,311.5367
1980-07-21 02:30:00 UTC,2444441.604167,26.9933,-96.0933,0450,-4.71,5.12,6.9569,317.3884
1980-07-21 03:00:00 UTC,2444441.625000,26.9933,-96.0933,0450,-4.53,9.11,10.1741,333.5609
1980-07-21 03:30:00 UTC,2444441.645833,26.9933,-96.0933,0450,-3.35,13.12,13.5409,345.6764
1980-07-21 04:00:00 UTC,2444441.666667,26.9933,-96.0933,0450,-1.73,12.44,12.5597,352.0828
1980-07-21 04:30:00 UTC,2444441.687500,26.9933,-96.0933,0450,-3.21,13.15,13.5361,346.2820
1980-07-21 05:00:00 UTC,2444441.708333,26.9933,-96.0933,0450,-2.10,14.51,14.6612,351.7649
1980-07-21 05:30:00 UTC,2444441.729167,26.9933,-96.0933,0450,0.35,12.42,12.4249,1.6142
1980-07-21 06:00:00 UTC,2444441.750000,26.9933,-96.0933,0450,-0.68,11.70,11.7197,356.6737
1980-07-21 06:30:00 UTC,2444441.770833,26.9933,-96.0933,0450,-0.81,11.55,11.5784,355.9884
1980-07-21 07:00:00 UTC,2444441.791667,26.9933,-96.0933,0450,-0.47,11.85,11.8593,357.7287
1980-07-21 07:30:00 UTC,2444441.812500,26.9933,-96.0933,0450,0.20,12.70,12.7016,0.9022
1980-07-21 08:00:00 UTC,2444441.833333,26.9933,-96.0933,0450,2.78,14.11,14.3813,11.1459
1980-07-21 08:30:00 UTC,2444441.854167,26.9933,-96.0933,0450,3.24,13.72,14.0974,13.2871
1980-07-21 09:00:00 UTC,2444441.875000,26.9933,-96.0933,0450,4.30,11.80,12.5591,20.0221
1980-07-21 09:30:00 UTC,2444441.895833,26.9933,-96.0933,0450,4.45,11.75,12.5644,20.7428
1980-07-21 10:00:00 UTC,2444441.916667,26.9933,-96.0933,0450,7.40,9.80,12.2801,37.0565
1980-07-21 10:30:00 UTC,2444441.937500,26.9933,-96.0933,0450,3.88,9.71,10.4565,21.7811
1980-07-21 11:00:00 UTC,2444441.958333,26.9933,-96.0933,0450,2.86,7.71,8.2234,20.3522
1980-07-21 11:30:00 UTC,2444441.979167,26.9933,-96.0933,0450,3.16,6.67,7.3807,25.3499
1980-07-21 12:00:00 UTC,2444442.000000,26.9933,-96.0933,0450,2.22,7.04,7.3817,17.5022
1980-07-21 12:30:00 UTC,2444442.020833,26.9933,-96.0933,0450,2.35,7.29,7.6594,17.8672
1980-07-21 13:00:00 UTC,2444442.041667,26.9933,-96.0933,0450,2.07,7.52,7.7997,15.3904
1980-07-21 13:30:00 UTC,2444442.062500,26.9933,-96.0933,0450,2.85,8.30,8.7757,18.9511
1980-07-21 14:00:00 UTC,2444442.083333,26.9933,-96.0933,0450,5.12,6.43,8.2194,38.5292
1980-07-21 14:30:00 UTC,2444442.104167,26.9933,-96.0933,0450,4.69,7.91,9.1959,30.6646
1980-07-21 15:00:00 UTC,2444442.125000,26.9933,-96.0933,0450,4.41,5.92,7.3820,36.6836
1980-07-21 15:30:00 UTC,2444442.145833,26.9933,-96.0933,0450,4.32,4.72,6.3985,42.4664
1980-07-21 16:00:00 UTC,2444442.166667,26.9933,-96.0933,0450,3.40,4.22,5.4193,38.8579
1980-07-21 16:30:00 UTC,2444442.187500,26.9933,-96.0933,0450,3.01,3.99,4.9980,37.0304
1980-07-21 17:00:00 UTC,2444442.208333,26.9933,-96.0933,0450,2.43,5.47,5.9855,23.9528
1980-07-21 17:30:00 UTC,2444442.229167,26.9933,-96.0933,0450,2.12,5.29,5.6990,21.8387
1980-07-21 18:00:00 UTC,2444442.250000,26.9933,-96.0933,0450,3.58,4.79,5.9800,36.7741
1980-07-21 18:30:00 UTC,2444442.270833,26.9933,-96.0933,0450,3.98,5.19,6.5404,37.4831
1980-07-21 19:00:00 UTC,2444442.291667,26.9933,-96.0933,0450,3.78,4.81,6.1176,38.1625
1980-07-21 19:30:00 UTC,2444442.312500,26.9933,-96.0933,0450,3.57,4.26,5.5581,39.9640
1980-07-21 20:00:00 UTC,2444442.333333,26.9933,-96.0933,0450,1.89,5.08,5.4202,20.4076
1980-07-21 20:30:00 UTC,2444442.354167,26.9933,-96.0933,0450,3.52,4.48,5.6974,38.1572
1980-07-21 21:00:00 UTC,2444442.375000,26.9933,-96.0933,0450,3.11,5.10,5.9734,31.3750
1980-07-21 21:30:00 UTC,2444442.395833,26.9933,-96.0933,0450,1.74,6.45,6.6806,15.0972
1980-07-21 22:00:00 UTC,2444442.416667,26.9933,-96.0933,0450,0.52,6.24,6.2616,4.7636
1980-07-21 22:30:00 UTC,2444442.437500,26.9933,-96.0933,0450,1.51,6.07,6.2550,13.9696
1980-07-21 23:00:00 UTC,2444442.458333,26.9933,-96.0933,0450,1.28,6.70,6.8212,10.8157
1980-07-21 23:30:00 UTC,2444442.479167,26.9933,-96.0933,0450,1.29,6.55,6.6758,11.1416
1980-07-22 00:00:00 UTC,2444442.500000,26.9933,-96.0933,0450,0.83,6.20,6.2553,7.6249
1980-07-22 00:30:00 UTC,2444442.520833,26.9933,-96.0933,0450,1.45,5.66,5.8428,14.3692
1980-07-22 01:00:00 UTC,2444442.541667,26.9933,-96.0933,0450,2.57,4.93,5.5597,27.5329
1980-07-22 01:30:00 UTC,2444442.562500,26.9933,-96.0933,0450,2.03,4.72,5.1380,23.2718
1980-07-22 02:00:00 UTC,2444442.583333,26.9933,-96.0933,0450,1.61,4.88,5.1387,18.2587
1980-07-22 02:30:00 UTC,2444442.604167,26.9933,-96.0933,0450,1.48,4.48,4.7181,18.2813
1980-07-22 03:00:00 UTC,2444442.625000,26.9933,-96.0933,0450,0.54,4.27,4.3040,7.2076
1980-07-22 03:30:00 UTC,2444442.645833,26.9933,-96.0933,0450,0.16,4.02,4.0232,2.2792
1980-07-22 04:00:00 UTC,2444442.666667,26.9933,-96.0933,0450,0.21,4.44,4.4450,2.7079
1980-07-22 04:30:00 UTC,2444442.687500,26.9933,-96.0933,0450,0.17,4.86,4.8630,2.0034
1980-07-22 05:00:00 UTC,2444442.708333,26.9933,-96.0933,0450,-1.55,6.35,6.5364,346.2827
1980-07-22 05:30:00 UTC,2444442.729167,26.9933,-96.0933,0450,-1.77,5.71,5.9780,342.7775
1980-07-22 06:00:00 UTC,2444442.750000,26.9933,-96.0933,0450,-2.55,6.02,6.5378,337.0431
1980-07-22 06:30:00 UTC,2444442.770833,26.9933,-96.0933,0450,-1.99,5.19,5.5584,339.0217
1980-07-22 07:00:00 UTC,2444442.791667,26.9933,-96.0933,0450,-1.96,5.65,5.9803,340.8682
1980-07-22 07:30:00 UTC,2444442.812500,26.9933,-96.0933,0450,-1.68,6.03,6.2597,344.4318
1980-07-22 08:00:00 UTC,2444442.833333,26.9933,-96.0933,0450,-3.90,6.76,7.8043,330.0184
1980-07-22 08:30:00 UTC,2444442.854167,26.9933,-96.0933,0450,-2.64,8.52,8.9196,342.7839
1980-07-22 09:00:00 UTC,2444442.875000,26.9933,-96.0933,0450,-4.29,9.84,10.7345,336.4440
1980-07-22 09:30:00 UTC,2444442.895833,26.9933,-96.0933,0450,-4.03,8.11,9.0561,333.5764
1980-07-22 10:00:00 UTC,2444442.916667,26.9933,-96.0933,0450,-3.44,11.35,11.8599,343.1388
1980-07-22 10:30:00 UTC,2444442.937500,26.9933,-96.0933,0450,-2.88,11.79,12.1367,346.2729
1980-07-22 11:00:00 UTC,2444442.958333,26.9933,-96.0933,0450,-1.72,11.88,12.0039,351.7619
1980-07-22 11:30:00 UTC,2444442.979167,26.9933,-96.0933,0450,1.02,13.08,13.1197,4.4590
1980-07-22 12:00:00 UTC,2444443.000000,26.9933,-96.0933,0450,-0.31,14.80,14.8032,358.8000
1980-07-22 12:30:00 UTC,2444443.020833,26.9933,-96.0933,0450,0.31,13.96,13.9634,1.2721
1980-07-22 13:00:00 UTC,2444443.041667,26.9933,-96.0933,0450,1.98,13.54,13.6840,8.3196
1980-07-22 13:30:00 UTC,2444443.062500,26.9933,-96.0933,0450,-0.53,13.39,13.4005,357.7333
1980-07-22 14:00:00 UTC,2444443.083333,26.9933,-96.0933,0450,0.73,12.40,12.4215,3.3692
1980-07-22 14:30:00 UTC,2444443.104167,26.9933,-96.0933,0450,0.58,12.41,12.4235,2.6759
1980-07-22 15:00:00 UTC,2444443.125000,26.9933,-96.0933,0450,4.13,11.56,12.2756,19.6601
1980-07-22 15:30:00 UTC,2444443.145833,26.9933,-96.0933,0450,1.10,11.39,11.4430,5.5163
1980-07-22 16:00:00 UTC,2444443.166667,26.9933,-96.0933,0450,2.16,10.95,11.1610,11.1589
1980-07-22 16:30:00 UTC,2444443.187500,26.9933,-96.0933,0450,0.44,10.87,10.8789,2.3180
1980-07-22 17:00:00 UTC,2444443.208333,26.9933,-96.0933,0450,0.72,11.00,11.0235,3.7449
1980-07-22 17:30:00 UTC,2444443.229167,26.9933,-96.0933,0450,1.28,8.40,8.4970,8.6641
1980-07-22 18:00:00 UTC,2444443.250000,26.9933,-96.0933,0450,0.51,7.08,7.0983,4.1201
1980-07-22 18:30:00 UTC,2444443.270833,26.9933,-96.0933,0450,0.76,5.93,5.9785,7.3033
1980-07-22 19:00:00 UTC,2444443.291667,26.9933,-96.0933,0450,0.70,6.08,6.1202,6.5676
1980-07-22 19:30:00 UTC,2444443.312500,26.9933,-96.0933,0450,0.24,5.13,5.1356,2.6786
1980-07-22 20:00:00 UTC,2444443.333333,26.9933,-96.0933,0450,-0.56,3.84,3.8806,351.7029
1980-07-22 20:30:00 UTC,2444443.354167,26.9933,-96.0933,0450,-1.29,3.36,3.5991,338.9968
1980-07-22 21:00:00 UTC,2444443.375000,26.9933,-96.0933,0450,-0.95,1.67,1.9213,330.3661
1980-07-22 21:30:00 UTC,2444443.395833,26.9933,-96.0933,0450,-1.74,2.14,2.7581,320.8860
1980-07-22 22:00:00 UTC,2444443.416667,26.9933,-96.0933,0450,-2.39,2.69,3.5984,318.3797
1980-07-22 22:30:00 UTC,2444443.437500,26.9933,-96.0933,0450,-3.02,2.86,4.1593,313.4413
1980-07-22 23:00:00 UTC,2444443.458333,26.9933,-96.0933,0450,-3.15,2.92,4.2952,312.8300
1980-07-22 23:30:00 UTC,2444443.479167,26.9933,-96.0933,0450,-2.66,3.73,4.5813,324.5060
1980-07-23 00:00:00 UTC,2444443.500000,26.9933,-96.0933,0450,-2.68,4.71,5.4191,330.3600
1980-07-23 00:30:00 UTC,2444443.520833,26.9933,-96.0933,0450,-1.57,4.89,5.1359,342.2001
1980-07-23 01:00:00 UTC,2444443.541667,26.9933,-96.0933,0450,-1.43,4.79,4.9989,343.3776
1980-07-23 01:30:00 UTC,2444443.562500,26.9933,-96.0933,0450,-3.08,3.20,4.4414,316.0947
1980-07-23 02:00:00 UTC,2444443.583333,26.9933,-96.0933,0450,-3.07,1.87,3.5947,301.3465
1980-07-23 02:30:00 UTC,2444443.604167,26.9933,-96.0933,0450,-3.63,3.44,5.0010,313.4606
1980-07-23 03:00:00 UTC,2444443.625000,26.9933,-96.0933,0450,-4.39,4.26,6.1172,314.1390
1980-07-23 03:30:00 UTC,2444443.645833,26.9933,-96.0933,0450,-5.28,6.30,8.2200,320.0338
1980-07-23 04:00:00 UTC,2444443.666667,26.9933,-96.0933,0450,-5.52,6.28,8.3611,318.6852
1980-07-23 04:30:00 UTC,2444443.687500,26.9933,-96.0933,0450,-5.59,5.24,7.6620,313.1490
1980-07-23 05:00:00 UTC,2444443.708333,26.9933,-96.0933,0450,-6.63,6.97,9.6197,316.4321
1980-07-23 05:30:00 UTC,2444443.729167,26.9933,-96.0933,0450,-7.41,8.15,11.0150,317.7228
1980-07-23 06:00:00 UTC,2444443.750000,26.9933,-96.0933,0450,-7.49,8.83,11.5788,319.6939
1980-07-23 06:30:00 UTC,2444443.770833,26.9933,-96.0933,0450,-7.10,9.50,11.8600,323.2267
1980-07-23 07:00:00 UTC,2444443.791667,26.9933,-96.0933,0450,-6.80,10.39,12.4174,326.7962
1980-07-23 07:30:00 UTC,2444443.812500,26.9933,-96.0933,0450,-5.28,10.93,12.1385,334.2160
1980-07-23 08:00:00 UTC,2444443.833333,26.9933,-96.0933,0450,-5.40,10.56,11.8606,332.9164